Billings, MT

7:27 AM MST on December 17, 2017 (GMT -0700)
Billings Logan International

Weather History for KBIL - October, 2013

Change the Weather History Date:

Monday, October 7, 2013

  Actual Average Record
Temperature  
Mean Temperature 55 °F 51 °F  
Max Temperature 65 °F 63 °F 89 °F (1980)
Min Temperature 44 °F 40 °F 18 °F (1985)
Degree Days  
Heating Degree Days 10 14  
Month to date heating degree days 124 89  
Since 1 July heating degree days 238 318  
Cooling Degree Days 0 0  
Month to date cooling degree days 0 0  
Year to date cooling degree days 840 633  
Growing Degree Days 4 (Base 50)    
Moisture  
Dew Point 37 °F    
Average Humidity 54    
Maximum Humidity 70    
Minimum Humidity 37    
Precipitation  
Precipitation 0.00 in 0.04 in 1.23 in (1993)
Month to date precipitation 1.42 0.32  
Year to date precipitation 13.23 11.67  
Snow  
Snow 0.00 in 0.10 in 5.40 in (1993)
Month to date snowfall 0.3 0.8  
Since 1 July snowfall 0.3 1.9  
Since 1 September snowfall 0.3 1.9  
Snow Depth 0.00 in    
Sea Level Pressure  
Sea Level Pressure 29.79 in    
Wind  
Wind Speed 14 mph (SW)    
Max Wind Speed 25 mph    
Max Gust Speed 31 mph    
Visibility 10 miles    
Events      
T = Trace of Precipitation, MM = Missing Value Source: NWS Daily Summary

Daily Weather History Graph

Daily Weather History Graph

Search for Another Location

Airport or City:

Trip Planner

Search our weather history database for the weather conditions in past years. The results will help you decide how hot, cold, wet, or windy it might be!

Date:

Astronomy

Oct. 07, 2013 Rise Set
Actual Time 7:20 AM MDT 6:42 PM MDT
Civil Twilight 6:50 AM MDT 7:12 PM MDT
Nautical Twilight 6:16 AM MDT 7:46 PM MDT
Astronomical Twilight 5:41 AM MDT 8:21 PM MDT
Moon 10:23 AM MDT (10/7) 8:19 PM MDT (10/7)
Length of Visible Light 12h 21m
Length of Day
11h 21m
Waxing Crescent, 9% of the Moon is Illuminated
Oct 7
Waxing Crescent
Oct 11
First Quarter
Oct 18
Full
Oct 26
Last Quarter
Nov 3
New

Hourly Weather History & Observations

Time (MDT) Temp. Windchill Dew Point Humidity Pressure Visibility Wind Dir Wind Speed Gust Speed Precip Events Conditions
12:53 AM 54.0 °F - 35.1 °F 49% 29.97 in 10.0 mi WSW 19.6 mph - N/A   Clear
1:53 AM 48.9 °F - 36.0 °F 61% 29.97 in 10.0 mi SW 11.5 mph - N/A   Clear
2:53 AM 45.0 °F 40.6 °F 36.0 °F 71% 29.96 in 10.0 mi South 8.1 mph - N/A   Clear
3:53 AM 50.0 °F - 35.1 °F 57% 29.92 in 10.0 mi SW 13.8 mph - N/A   Clear
4:53 AM 51.1 °F - 35.1 °F 54% 29.91 in 10.0 mi SW 12.7 mph - N/A   Clear
5:53 AM 46.0 °F 40.6 °F 35.1 °F 66% 29.90 in 10.0 mi South 11.5 mph - N/A   Clear
6:53 AM 51.1 °F - 33.1 °F 50% 29.88 in 10.0 mi SW 17.3 mph - N/A   Partly Cloudy
7:53 AM 50.0 °F - 34.0 °F 54% 29.87 in 10.0 mi SW 12.7 mph - N/A   Partly Cloudy
8:53 AM 53.1 °F - 35.1 °F 50% 29.86 in 10.0 mi SW 10.4 mph - N/A   Partly Cloudy
9:53 AM 55.9 °F - 37.0 °F 49% 29.83 in 10.0 mi WSW 18.4 mph - N/A   Mostly Cloudy
10:53 AM 60.1 °F - 37.9 °F 44% 29.81 in 10.0 mi SW 16.1 mph - N/A   Mostly Cloudy
11:53 AM 61.0 °F - 37.9 °F 42% 29.80 in 10.0 mi SW 17.3 mph 25.3 mph N/A   Mostly Cloudy
12:53 PM 61.0 °F - 37.0 °F 41% 29.77 in 10.0 mi SW 17.3 mph - N/A   Mostly Cloudy
1:53 PM 59.0 °F - 37.0 °F 44% 29.76 in 10.0 mi WSW 20.7 mph - N/A   Scattered Clouds
2:53 PM 62.1 °F - 37.0 °F 39% 29.74 in 10.0 mi SW 18.4 mph - N/A   Scattered Clouds
3:53 PM 64.0 °F - 37.0 °F 37% 29.71 in 10.0 mi SW 18.4 mph - N/A   Scattered Clouds
4:53 PM 62.1 °F - 37.0 °F 39% 29.70 in 10.0 mi SW 16.1 mph - N/A   Scattered Clouds
5:53 PM 62.1 °F - 39.0 °F 43% 29.69 in 10.0 mi SW 10.4 mph - N/A   Scattered Clouds
6:53 PM 61.0 °F - 37.9 °F 42% 29.68 in 10.0 mi SW 9.2 mph - N/A   Scattered Clouds
7:53 PM 59.0 °F - 39.0 °F 48% 29.68 in 10.0 mi South 8.1 mph - N/A   Clear
8:53 PM 60.1 °F - 39.0 °F 46% 29.67 in 10.0 mi WSW 11.5 mph - N/A   Partly Cloudy
9:53 PM 59.0 °F - 37.9 °F 46% 29.66 in 10.0 mi WSW 12.7 mph - N/A   Clear
10:53 PM 60.1 °F - 37.9 °F 44% 29.65 in 10.0 mi WSW 15.0 mph - N/A   Clear
11:53 PM 60.1 °F - 37.9 °F 44% 29.64 in 10.0 mi WSW 15.0 mph - N/A   Clear